RH
82 78 73 70 70 71 72 73 75 76 77 79 80 81 81 80 80 81 86 87 88 86 86 86 85 89 72 46 29 11 62 58 26 19 20 18 18 17 17 15 13 13 11 10 9 10 12
85 82 75 72 72 73 73 74 76 76 77 79 81 81 81 81 80 82 86 87 88 88 88 87 86 88 64 48 10 11 20 13 14 16 14 15 16 13 14 12 13 11 11 10 9 12 12
85 84 78 76 73 74 74 75 76 75 77 79 80 82 82 82 82 83 86 88 88 89 89 86 85 55 44 40 10 11 10 13 13 14 15 12 12 15 14 16 13 12 14 11 10 12 15
86 85 80 79 77 78 76 76 75 74 77 78 80 81 86 86 87 87 88 89 89 88 88 86 83 52 52 16 12 10 12 13 12 12 12 12 12 15 17 14 14 15 18 18 14 13 14
87 85 82 80 79 78 76 76 75 74 77 79 80 82 86 87 88 89 89 89 88 86 86 77 64 62 41 20 11 11 14 15 14 12 13 8 16 17 18 23 27 22 26 18 19 14 14
87 86 84 81 79 77 75 75 75 75 78 80 80 81 85 87 88 89 90 88 76 77 58 34 26 40 27 14 11 11 15 14 16 16 16 17 20 26 25 28 34 26 24 21 19 22 16
87 86 84 81 78 76 74 73 73 78 78 79 80 81 85 87 88 89 86 61 30 44 40 23 19 17 14 12 11 12 12 14 17 19 24 21 29 33 23 21 22 22 22 21 18 16 22
89 88 86 82 79 76 74 73 73 76 78 79 80 82 85 88 89 90 94 63 37 44 36 13 14 16 10 12 14 13 13 23 25 28 23 29 32 21 16 16 20 21 20 28 25 16 36
91 90 87 83 78 75 74 72 72 75 78 79 81 82 87 89 90 90 71 46 34 42 52 18 12 14 13 14 13 14 15 19 25 23 26 30 22 14 14 21 21 21 26 28 28 23 36
92 91 88 84 80 76 74 72 72 75 78 80 84 87 89 90 77 59 49 36 48 60 61 23 17 15 11 15 17 12 13 20 25 27 26 31 18 19 23 21 20 26 26 28 27 33 31
92 91 88 85 83 81 77 74 72 77 78 80 86 88 90 89 93 62 48 41 51 66 85 24 14 12 11 16 14 13 12 16 18 16 24 30 28 27 28 24 22 28 27 29 32 40 42
93 91 88 86 85 82 76 74 74 78 79 81 87 88 90 81 89 66 56 56 66 73 71 24 14 16 16 15 14 16 19 18 18 20 19 21 21 25 27 25 25 29 38 40 45 45 82
93 90 89 87 86 82 76 73 75 78 80 83 88 89 91 67 86 63 76 71 81 85 26 18 18 17 17 19 18 21 27 33 41 45 31 24 22 24 24 34 31 40 55 89 85 93 99
94 90 89 88 86 81 76 73 77 79 82 87 90 91 83 70 76 81 85 71 76 36 23 15 15 16 22 23 24 28 29 38 35 44 44 48 42 29 27 35 44 45 58 89 89 95 99
93 90 89 88 85 80 76 73 77 79 85 90 90 87 92 85 75 78 82 94 58 34 18 17 15 23 24 24 26 28 39 43 40 43 63 78 44 27 27 28 41 50 72 58 74 79 91
92 90 89 88 85 81 76 74 76 79 85 89 92 89 75 71 74 87 76 75 42 26 22 22 26 31 30 23 28 30 41 39 44 39 44 51 69 31 31 36 45 57 55 84 91 94 99
86 91 89 88 85 82 75 75 76 78 86 87 92 87 70 70 81 93 82 56 28 19 22 32 28 28 27 26 26 29 42 40 40 40 41 42 69 47 41 63 74 78 88 88 85 97 96
90 90 89 88 85 81 75 75 77 80 87 92 84 87 72 78 85 78 60 32 30 23 25 28 32 34 34 33 34 43 45 45 39 43 49 48 66 68 58 56 58 66 73 98 96 93 99
84 91 89 88 85 82 78 76 78 83 86 96 88 59 71 74 92 65 38 30 28 27 27 32 34 32 34 38 42 44 48 45 39 48 66 65 69 79 73 65 66 82 79 82 96 96 96
84 91 89 88 84 81 77 76 77 84 85 95 89 69 60 74 66 47 42 38 37 27 29 26 30 32 32 32 34 47 48 42 43 42 60 70 72 84 94 93 79 92 77 72 86 92 89
85 92 89 87 84 81 77 77 79 84 85 93 84 70 50 55 55 45 44 36 33 33 30 29 34 32 35 44 40 50 44 42 38 51 57 65 86 75 74 75 79 87 78 72 79 67 76
87 91 89 86 83 79 76 78 84 84 85 90 90 54 51 53 48 44 48 40 34 31 32 32 42 45 47 61 61 65 50 55 53 43 44 53 79 71 82 67 71 95 83 73 68 66 52
88 90 88 85 83 78 76 80 86 85 88 78 70 61 58 58 46 49 45 36 38 44 39 42 48 56 57 52 49 48 46 46 44 52 58 62 77 78 93 68 66 85 98 85 76 76 72
88 88 87 85 82 76 78 82 86 86 88 93 84 67 59 56 42 36 34 38 45 53 60 49 50 55 50 42 42 43 38 32 34 36 38 68 86 90 98 95 97 96 83 85 84 77 76
89 88 86 83 80 79 79 85 86 86 87 91 86 79 62 52 36 36 40 51 51 56 59 59 56 50 47 52 62 60 71 59 34 32 49 68 89 99 98 98 99 83 76 86 86 86 68
88 87 85 83 80 79 83 86 86 86 86 91 88 87 66 47 67 31 50 49 61 67 63 63 54 53 60 69 50 64 72 47 44 40 44 74 82 99 100 96 98 97 75 73 78 94 66
88 86 84 82 80 82 86 86 86 85 86 90 80 80 64 85 69 66 62 57 52 59 65 54 56 64 66 60 60 71 79 50 76 74 80 97 99 99 98 98 99 77 75 70 92 88 69
86 84 82 81 82 85 86 86 86 85 88 88 74 75 70 77 68 60 58 73 64 69 76 54 64 64 66 66 70 68 78 72 84 75 82 90 99 98 99 98 99 75 64 85 76 65 65
85 83 82 82 85 87 87 86 86 85 86 83 72 53 55 64 64 60 54 52 60 70 69 64 68 54 62 71 72 82 86 87 84 99 80 96 99 100 100 99 84 78 72 60 62 67 65
Wind_Speed
7 7 6 5 6 7 9 11 12 13 15 15 16 16 17 18 17 19 17 17 17 18 16 15 13 10 5 2 8 9 10 10 6 5 6 7 7 5 7 6 8 4 6 6 4 10 7
9 8 7 6 6 8 9 10 12 14 14 15 16 16 17 18 18 19 19 19 17 17 17 14 10 7 2 3 6 5 8 1 8 7 9 8 9 10 7 7 6 7 6 7 6 4 7
10 10 8 7 6 7 8 9 12 14 14 15 16 16 17 18 18 19 19 20 19 17 17 12 7 3 4 11 6 7 7 6 5 3 5 7 12 4 6 8 7 8 7 9 9 3 7
11 10 9 7 6 8 9 10 12 14 14 15 17 17 16 17 18 19 19 21 19 17 15 9 4 3 6 5 3 6 8 10 3 7 7 10 5 3 4 7 8 8 4 5 7 10 5
11 10 10 7 7 7 8 10 11 14 15 15 17 16 16 16 18 19 21 22 18 15 7 5 2 2 6 1 3 7 3 5 8 4 4 4 2 5 6 4 6 5 3 5 1 6 4
12 11 9 8 8 8 9 11 11 13 14 15 16 16 16 17 17 18 23 21 9 9 4 7 6 3 7 4 3 6 3 6 6 3 3 3 2 1 5 7 2 8 9 9 1 2 11
13 12 10 10 9 8 9 11 11 12 14 15 16 16 16 17 16 16 13 6 4 2 3 3 3 4 5 8 1 5 5 6 6 4 5 8 8 5 7 5 3 4 7 8 6 6 12
16 13 11 10 10 10 9 11 11 12 14 15 16 16 17 17 16 14 5 2 3 2 3 3 3 1 4 5 4 10 9 4 3 6 7 8 7 6 6 8 9 9 8 6 1 11 20
15 13 11 9 10 10 9 11 11 12 13 14 15 16 17 16 17 5 3 5 3 8 2 4 3 1 3 5 2 7 8 7 3 4 10 8 5 10 7 11 11 8 6 8 8 9 16
15 13 11 10 9 10 9 10 12 12 13 14 15 15 15 17 3 4 3 2 5 3 4 4 3 1 3 3 3 4 6 3 3 7 7 8 9 10 12 13 8 4 6 7 9 7 3
15 13 11 9 8 8 8 9 11 12 13 14 14 13 14 6 6 2 3 4 4 5 4 3 3 3 2 1 2 9 5 8 9 8 3 2 8 8 8 8 11 5 3 9 11 7 3
15 14 13 11 9 8 8 10 11 11 12 14 14 12 15 3 3 6 7 6 5 8 5 3 5 5 4 6 6 6 5 9 5 5 10 7 5 8 4 9 5 8 7 7 5 1 6
16 15 14 11 9 8 9 10 11 11 13 14 13 13 9 5 3 5 5 4 7 5 3 5 4 5 9 5 4 6 12 11 6 4 3 6 8 4 6 7 8 7 7 5 7 7 4
18 16 14 12 10 8 9 10 10 10 12 12 13 12 5 4 4 6 4 5 5 7 3 6 5 8 4 2 6 11 7 5 8 6 4 3 4 5 6 4 4 5 6 5 4 3 1
16 15 14 12 10 8 9 10 10 11 11 12 15 2 2 2 0 3 5 5 7 5 6 5 7 5 3 3 3 6 6 5 4 8 5 4 3 3 2 2 7 5 4 4 6 4 6
14 15 14 12 10 9 8 10 10 10 9 9 3 3 2 6 3 2 6 4 3 4 5 3 4 1 4 6 3 5 5 4 4 4 3 1 2 3 6 9 10 6 3 6 5 4 3
18 14 16 13 10 9 8 9 10 10 8 5 2 1 2 5 4 1 4 1 4 6 7 6 4 3 5 4 3 4 4 5 6 6 7 3 5 3 8 6 5 6 5 6 6 3 5
19 17 16 14 12 10 9 9 10 8 6 2 3 1 3 4 2 2 2 5 6 2 2 4 6 9 5 3 5 6 5 4 6 5 4 2 1 4 10 15 14 11 7 4 4 2 3
19 18 17 15 13 11 9 9 9 6 3 2 3 3 1 4 3 2 2 4 6 2 4 2 3 6 4 4 4 7 5 2 5 3 2 4 2 4 6 3 7 6 4 6 5 3 4
18 18 18 15 14 12 10 10 9 5 4 1 3 4 1 1 3 8 7 4 2 7 6 6 3 4 5 5 6 5 5 1 2 3 2 3 5 7 3 7 2 4 2 4 3 5 1
19 18 19 17 14 12 11 10 9 6 5 2 3 3 7 4 1 7 7 6 7 4 2 1 2 5 2 4 5 6 5 4 4 2 2 4 6 16 11 12 12 12 12 5 5 5 7
21 20 19 16 14 11 10 9 9 6 6 1 2 3 2 3 6 8 6 5 8 4 3 4 11 14 15 8 7 6 5 6 6 5 5 5 5 15 10 11 14 14 16 15 9 14 9
21 23 20 18 15 13 12 11 9 9 6 3 4 4 7 1 3 6 1 5 6 3 10 10 15 11 12 8 7 6 8 7 5 4 7 4 8 7 4 7 6 9 7 10 5 11 7
23 24 20 18 15 14 13 11 10 9 12 2 5 2 6 1 5 5 12 10 10 10 8 8 9 7 2 0 5 6 8 7 7 6 4 3 3 3 7 5 4 2 4 3 3 9 11
26 23 21 18 16 14 13 12 10 10 9 3 4 4 3 4 9 13 14 13 15 12 11 11 8 4 3 3 1 4 4 2 5 6 8 6 4 3 4 5 6 2 1 2 4 7 12
26 23 21 18 16 14 13 12 11 10 9 3 4 2 3 8 6 12 12 10 7 4 5 4 4 4 2 1 3 4 1 3 4 5 9 13 7 3 1 4 4 1 4 3 3 3 8
25 22 20 18 16 14 13 12 12 11 11 3 4 2 7 8 6 6 4 5 6 4 5 3 3 2 1 4 5 3 2 4 4 4 5 5 3 6 6 5 4 5 3 3 2 4 9
23 20 19 17 15 14 13 13 13 9 12 6 2 5 7 6 6 8 6 6 5 4 6 5 6 6 5 6 4 2 4 1 5 7 3 4 3 4 3 4 4 6 3 1 2 6 8
22 19 18 17 15 14 13 13 12 10 10 8 5 6 8 9 7 3 7 5 3 3 6 1 6 3 3 4 3 5 5 4 3 3 7 6 5 2 4 3 0 3 0 2 4 8 11
Wind_Direction
233 251 258 278 300 319 330 330 329 330 332 329 330 329 327 326 327 321 316 311 311 310 309 311 314 327 318 222 251 214 194 219 174 174 212 246 283 270 252 266 291 250 287 345 333 93 102
218 224 241 261 290 312 326 326 325 330 327 328 328 329 326 324 324 319 314 309 307 307 305 307 309 325 249 269 330 120 220 287 207 204 235 227 247 253 262 278 296 279 321 331 319 140 127
218 215 232 249 275 295 310 320 323 323 323 328 327 328 325 323 323 314 314 308 303 305 302 303 297 270 297 246 330 327 343 284 242 251 289 253 240 246 322 309 269 301 324 312 280 210 134
221 217 233 245 265 290 306 319 322 322 323 330 327 324 322 322 320 311 314 305 301 303 302 290 236 242 252 218 332 352 321 317 214 206 233 268 353 357 264 274 311 295 306 286 303 129 179
216 219 230 243 262 281 298 307 316 320 326 329 322 322 323 325 316 319 311 303 295 292 268 270 172 206 265 179 17 303 306 315 319 251 259 292 341 225 309 247 357 26 264 4 66 73 121
214 219 221 239 255 274 292 303 314 320 321 323 316 324 326 319 321 320 313 293 277 330 200 211 253 320 272 345 309 295 0 312 266 226 269 246 226 42 11 49 357 340 345 339 31 341 62
217 220 223 239 259 274 285 302 313 315 325 319 319 325 320 315 319 325 336 354 340 329 32 247 15 278 26 314 183 348 349 308 256 271 243 234 64 51 6 350 343 327 356 330 353 31 86
212 210 217 233 253 267 291 303 310 313 316 317 321 324 318 316 316 320 280 305 14 267 288 294 125 196 332 257 344 357 350 336 197 230 248 37 48 344 342 1 20 25 2 345 358 38 93
208 205 210 229 256 273 287 297 304 307 313 316 318 319 313 317 314 282 215 273 356 5 223 216 148 328 314 343 52 337 8 315 290 96 72 90 19 359 1 49 27 3 5 353 330 335 110
205 199 201 219 242 264 280 290 298 307 311 317 315 316 314 320 297 288 217 219 48 10 41 160 216 195 302 261 71 21 344 236 335 51 73 75 34 21 33 18 9 340 352 349 322 334 285
201 197 198 216 232 252 272 288 299 308 313 312 306 319 318 346 306 314 347 358 17 50 54 269 74 316 298 143 255 351 11 13 47 40 47 55 64 37 36 345 318 334 358 269 271 267 282
196 195 199 211 224 247 269 279 290 303 309 307 310 330 336 94 221 260 347 341 45 47 260 143 152 161 78 20 68 49 39 12 39 91 72 99 114 60 0 321 4 317 322 308 310 145 65
206 198 197 202 217 238 264 280 290 305 305 308 313 326 320 311 272 351 340 39 48 120 268 146 176 163 82 47 34 84 77 50 43 37 169 94 44 116 25 352 347 15 13 2 28 26 57
231 194 198 197 208 227 254 271 286 300 300 310 313 314 254 233 353 12 27 57 96 220 108 94 149 143 129 88 29 25 66 44 12 5 41 43 343 33 357 353 317 39 51 122 90 96 78
202 194 197 196 201 222 251 269 287 297 313 317 307 243 279 231 5 40 82 71 203 318 107 156 147 167 145 147 188 109 79 38 44 3 86 54 79 31 359 320 37 334 22 274 108 99 84
305 193 197 194 197 220 242 264 284 299 312 338 335 295 186 156 141 86 76 211 133 356 347 354 220 89 145 139 186 104 89 31 9 37 9 195 97 120 49 35 35 71 341 34 14 87 93
315 246 194 189 196 216 235 262 279 293 315 351 289 253 221 143 103 50 135 169 88 13 16 16 9 55 96 66 30 86 59 50 8 331 316 11 117 298 49 55 19 8 14 22 104 64 141
312 271 197 186 195 212 226 250 269 290 307 293 279 139 218 112 94 188 123 123 105 153 318 10 38 47 51 60 46 73 91 53 332 303 348 63 143 81 94 107 91 64 51 103 109 69 50
275 256 199 185 191 208 218 243 264 280 292 341 244 146 304 96 156 77 113 63 45 90 11 92 55 29 18 76 102 104 92 10 344 60 24 343 312 104 118 113 35 48 324 86 107 57 19
273 245 193 184 191 204 213 235 254 259 242 120 291 85 10 120 248 134 120 124 104 8 34 51 107 133 103 73 71 126 111 104 134 91 155 66 39 76 111 83 90 19 322 101 78 71 153
268 210 187 183 196 204 212 227 242 231 204 137 240 201 172 211 310 124 150 135 148 128 29 139 356 37 77 124 133 112 123 200 166 124 258 130 94 99 99 96 79 47 34 65 102 133 105
257 234 179 181 187 197 220 235 231 210 165 245 264 112 8 134 139 114 112 152 99 75 145 75 83 61 55 76 62 46 99 35 49 346 351 98 120 106 91 107 88 64 31 30 25 18 82
236 198 171 180 183 194 214 228 229 201 189 226 275 296 100 192 99 87 110 133 110 53 30 33 102 80 64 78 92 93 86 79 74 41 358 23 154 132 120 124 67 38 0 27 20 19 358
188 182 172 178 184 194 211 222 227 207 206 327 269 8 86 225 95 104 94 92 84 67 98 24 78 92 143 207 117 79 90 97 75 33 30 73 19 71 143 160 65 250 263 263 359 28 10
179 172 173 174 184 195 210 218 224 215 210 253 297 30 86 86 93 80 96 90 80 70 74 67 30 85 162 180 104 95 29 342 34 48 38 100 121 166 127 66 112 147 42 349 23 26 356
174 166 170 171 183 193 210 214 220 213 193 232 269 143 136 109 357 120 116 126 127 96 57 93 38 7 352 221 67 70 93 304 54 18 19 50 39 47 128 98 102 95 123 173 314 62 355
158 166 165 174 182 192 208 215 218 209 191 210 285 307 79 93 350 347 105 147 148 91 101 112 172 240 115 62 78 97 49 44 31 37 336 24 7 41 56 89 68 9 130 208 11 269 303
156 163 166 176 181 195 207 215 219 192 183 181 295 30 103 92 29 25 39 38 26 68 126 234 46 345 31 63 96 102 84 147 82 45 54 52 0 29 18 84 96 342 92 358 239 263 267
156 164 170 176 182 199 206 215 212 181 179 193 63 50 86 81 150 138 97 90 70 79 115 67 149 90 184 91 79 69 54 41 63 46 3 49 41 47 19 78 290 287 119 259 313 273 279